Starlink 6147

operational
NORAD ID: 57120 Int'l Des: 2023-090 Owner: SPXS Country: US Constellation: starlink
LEOCIRCULAR

Über Starlink 6147

Beschreibung wird geladen...

Live-Position

3D-Globus wird geladen...

Nächste Überflüge

Höhenverlauf

Altitude vs Time

uPlot chart will show altitude changes over time

Zweizeiliger Elementsatz

1 57120U 23090V 26037.17382336 .00000909 00000-0 82359-4 0 9999
2 57120 43.0022 85.8057 0001077 271.5437 88.5282 15.02535286145678
Epoch: 6. Feb. 2026 • Age: 13 hours

Aktueller Status

Höhe 560.5 km
Geschwindigkeit 7.59 km/s
Subsatellitenpunkt 31.25°N, 177.12°W
Startdatum 23. Juni 2023
Alter 2.6 years
Typ internet

Technische Details

Klassifizierung Payload
Masse 305.00 kg
Trockenmasse 290.00 kg
Gesamtmasse 305.00 kg
Länge 0.20 m
Durchmesser 2.80 m
Spannweite 9.00 m
Form Box + pan
Hersteller SPXS
Bus-Typ Starlink
Phasenstatus In Orbit
Besitzer/Staat SPXS/US

Große Konstellationen

Loading constellations...